User: anonymous   Login
Location: Burla
(50.9568°N, 10.4983°E)
Time: 12:01:56
(UTC+00:00)
Language:

CZ-2D R/B - Orbit

View from above orbital plane
View from above orbital plane
View from above satellite
View from above satellite

Ground track
Ground track

The orbit is defined by the following mean orbital elements,

1 28738U          26066.01530806 +.00000000 +00000-0 +60724-3 0 00006
2 28738  97.3597  81.0635 0006290  53.4811 306.7024 15.59849903    07
Epoch (UTC): 07 March 2026 00:22:02
Eccentricity: 0.0006290
inclination: 97.3597°
perigee height: 384 km
apogee height: 392 km
right ascension of ascending node: 81.0635°
argument of perigee: 53.4811°
revolutions per day: 15.59849903
mean anomaly at epoch: 306.7024°

The dashed part of the orbit path shows where the satellite is in the earth's shadow,  

DLR